QPF
0.00 0.00 0.00 0.00 0.00 0.00 0.00 0.00 0.00 0.01 0.01 0.01 0.02 0.02 0.02 0.04 0.05 0.03 0.03 0.05 0.06 0.06 0.07 0.08 0.09 0.08 0.08 0.07 0.07 0.07 0.07 0.07 0.05 0.03 0.03 0.04 0.02 0.01 0.01 0.01 0.01 0.03 0.05 0.06
0.00 0.00 0.00 0.00 0.00 0.00 0.00 0.00 0.00 0.01 0.01 0.02 0.03 0.04 0.06 0.07 0.06 0.04 0.03 0.04 0.05 0.05 0.05 0.05 0.08 0.09 0.09 0.07 0.07 0.09 0.10 0.07 0.04 0.03 0.02 0.02 0.02 0.01 0.01 0.01 0.02 0.05 0.06 0.06
0.00 0.00 0.00 0.00 0.00 0.00 0.00 0.00 0.00 0.01 0.01 0.02 0.03 0.04 0.05 0.06 0.06 0.05 0.04 0.04 0.05 0.05 0.05 0.04 0.06 0.07 0.09 0.08 0.08 0.09 0.09 0.08 0.07 0.05 0.03 0.03 0.02 0.02 0.01 0.01 0.02 0.05 0.07 0.07
0.00 0.00 0.00 0.00 0.00 0.00 0.00 0.00 0.00 0.01 0.01 0.01 0.02 0.03 0.03 0.04 0.04 0.05 0.04 0.04 0.04 0.05 0.05 0.06 0.06 0.07 0.07 0.08 0.08 0.09 0.10 0.09 0.08 0.07 0.04 0.02 0.02 0.02 0.03 0.03 0.02 0.03 0.05 0.06
0.00 0.00 0.00 0.00 0.00 0.00 0.00 0.00 0.01 0.01 0.00 0.01 0.01 0.02 0.03 0.03 0.02 0.03 0.03 0.04 0.05 0.06 0.07 0.07 0.08 0.09 0.09 0.10 0.11 0.11 0.11 0.10 0.08 0.07 0.06 0.04 0.02 0.02 0.02 0.03 0.04 0.06 0.07 0.06
0.00 0.00 0.00 0.00 0.00 0.00 0.00 0.01 0.01 0.01 0.00 0.00 0.01 0.01 0.02 0.02 0.01 0.01 0.03 0.07 0.08 0.06 0.05 0.06 0.08 0.11 0.10 0.11 0.11 0.11 0.11 0.12 0.10 0.07 0.04 0.03 0.02 0.02 0.02 0.03 0.04 0.05 0.07 0.04
0.00 0.00 0.00 0.00 0.00 0.00 0.00 0.01 0.01 0.01 0.01 0.01 0.01 0.01 0.01 0.01 0.01 0.01 0.03 0.04 0.04 0.04 0.06 0.06 0.07 0.10 0.11 0.11 0.11 0.10 0.07 0.06 0.06 0.05 0.04 0.03 0.02 0.03 0.03 0.03 0.04 0.04 0.03 0.03
0.00 0.00 0.00 0.00 0.00 0.00 0.00 0.01 0.01 0.01 0.01 0.01 0.01 0.01 0.00 0.00 0.01 0.01 0.02 0.03 0.03 0.05 0.06 0.06 0.06 0.07 0.06 0.06 0.05 0.05 0.03 0.03 0.03 0.03 0.02 0.03 0.04 0.04 0.03 0.02 0.02 0.01 0.01 0.02
0.00 0.00 0.00 0.00 0.00 0.00 0.00 0.00 0.00 0.00 0.00 0.00 0.00 0.01 0.01 0.00 0.01 0.01 0.02 0.03 0.04 0.05 0.08 0.08 0.07 0.05 0.03 0.03 0.03 0.03 0.03 0.03 0.03 0.04 0.04 0.04 0.03 0.03 0.02 0.01 0.01 0.01 0.01 0.01
0.00 0.00 0.00 0.00 0.00 0.00 0.00 0.00 0.00 0.00 0.00 0.00 0.00 0.00 0.00 0.00 0.01 0.02 0.04 0.04 0.04 0.06 0.08 0.06 0.05 0.04 0.04 0.03 0.02 0.02 0.03 0.04 0.03 0.03 0.04 0.03 0.02 0.02 0.01 0.01 0.00 0.00 0.01 0.01
0.00 0.00 0.00 0.00 0.00 0.00 0.00 0.00 0.00 0.00 0.00 0.00 0.00 0.00 0.00 0.00 0.00 0.01 0.03 0.05 0.05 0.06 0.06 0.05 0.05 0.04 0.04 0.04 0.03 0.03 0.03 0.03 0.03 0.03 0.03 0.03 0.02 0.02 0.01 0.01 0.01 0.01 0.01 0.02
0.00 0.00 0.00 0.00 0.00 0.00 0.00 0.00 0.00 0.00 0.00 0.00 0.00 0.00 0.00 0.01 0.01 0.01 0.01 0.02 0.03 0.04 0.05 0.05 0.04 0.03 0.03 0.03 0.02 0.03 0.04 0.03 0.02 0.02 0.02 0.02 0.02 0.02 0.02 0.02 0.02 0.01 0.02 0.02
0.00 0.00 0.00 0.00 0.00 0.00 0.00 0.01 0.00 0.00 0.00 0.00 0.00 0.00 0.00 0.01 0.01 0.01 0.02 0.02 0.03 0.05 0.04 0.04 0.04 0.03 0.02 0.02 0.02 0.03 0.02 0.02 0.01 0.01 0.01 0.01 0.01 0.02 0.02 0.02 0.02 0.01 0.02 0.02
0.00 0.00 0.00 0.00 0.00 0.00 0.00 0.00 0.01 0.01 0.01 0.00 0.00 0.00 0.01 0.01 0.01 0.02 0.02 0.02 0.03 0.03 0.03 0.03 0.04 0.03 0.02 0.01 0.02 0.01 0.01 0.01 0.01 0.01 0.01 0.01 0.01 0.02 0.02 0.02 0.02 0.03 0.03 0.02
0.00 0.00 0.00 0.00 0.00 0.00 0.00 0.01 0.01 0.01 0.01 0.01 0.00 0.00 0.00 0.01 0.01 0.01 0.02 0.02 0.02 0.02 0.02 0.02 0.03 0.03 0.01 0.01 0.01 0.01 0.01 0.01 0.01 0.01 0.01 0.01 0.01 0.01 0.01 0.01 0.02 0.05 0.07 0.06
0.00 0.00 0.00 0.00 0.01 0.01 0.01 0.01 0.01 0.01 0.02 0.01 0.00 0.01 0.01 0.02 0.02 0.02 0.03 0.03 0.03 0.03 0.03 0.02 0.01 0.01 0.01 0.01 0.01 0.01 0.01 0.01 0.01 0.02 0.02 0.02 0.01 0.01 0.01 0.01 0.01 0.01 0.03 0.04
0.00 0.00 0.00 0.00 0.00 0.00 0.01 0.01 0.02 0.01 0.01 0.01 0.01 0.01 0.01 0.02 0.04 0.05 0.05 0.05 0.04 0.02 0.02 0.02 0.02 0.02 0.02 0.02 0.02 0.01 0.01 0.01 0.02 0.02 0.02 0.02 0.01 0.01 0.01 0.01 0.01 0.01 0.01 0.00
0.01 0.00 0.00 0.00 0.01 0.01 0.01 0.02 0.02 0.02 0.01 0.01 0.01 0.01 0.02 0.02 0.03 0.03 0.03 0.03 0.03 0.03 0.03 0.04 0.04 0.05 0.06 0.06 0.04 0.03 0.03 0.02 0.02 0.01 0.01 0.01 0.00 0.00 0.00 0.01 0.01 0.01 0.01 0.01
0.01 0.01 0.01 0.01 0.01 0.01 0.01 0.02 0.02 0.02 0.01 0.01 0.01 0.01 0.02 0.03 0.02 0.02 0.02 0.03 0.03 0.03 0.04 0.06 0.06 0.09 0.11 0.09 0.07 0.05 0.04 0.04 0.03 0.02 0.01 0.00 0.00 0.00 0.00 0.00 0.00 0.00 0.01 0.01
0.01 0.01 0.01 0.01 0.01 0.01 0.01 0.01 0.01 0.01 0.01 0.01 0.01 0.01 0.01 0.01 0.01 0.01 0.02 0.02 0.03 0.03 0.07 0.06 0.05 0.08 0.10 0.07 0.05 0.04 0.04 0.04 0.04 0.03 0.02 0.01 0.00 0.00 0.00 0.00 0.00 0.00 0.01 0.01
0.01 0.01 0.01 0.01 0.01 0.01 0.01 0.01 0.01 0.01 0.00 0.01 0.01 0.01 0.00 0.01 0.01 0.00 0.00 0.01 0.01 0.02 0.04 0.04 0.03 0.04 0.05 0.04 0.03 0.02 0.03 0.04 0.03 0.02 0.01 0.01 0.01 0.00 0.00 0.00 0.00 0.00 0.00 0.01
0.01 0.00 0.01 0.01 0.01 0.00 0.00 0.01 0.01 0.01 0.01 0.01 0.01 0.01 0.01 0.00 0.00 0.00 0.00 0.00 0.00 0.01 0.02 0.03 0.03 0.04 0.04 0.04 0.03 0.03 0.04 0.04 0.04 0.03 0.01 0.01 0.01 0.01 0.01 0.01 0.01 0.00 0.00 0.00
0.01 0.01 0.01 0.01 0.00 0.00 0.00 0.00 0.00 0.00 0.00 0.00 0.01 0.01 0.01 0.00 0.00 0.00 0.00 0.00 0.00 0.01 0.01 0.02 0.03 0.04 0.04 0.04 0.04 0.04 0.04 0.04 0.05 0.05 0.03 0.01 0.01 0.00 0.00 0.00 0.00 0.00 0.00 0.00
0.01 0.01 0.02 0.01 0.01 0.00 0.00 0.00 0.00 0.00 0.00 0.00 0.00 0.00 0.00 0.00 0.00 0.00 0.00 0.00 0.00 0.00 0.01 0.01 0.01 0.02 0.03 0.04 0.04 0.04 0.05 0.05 0.05 0.05 0.04 0.02 0.01 0.01 0.01 0.00 0.00 0.00 0.00 0.00
0.01 0.01 0.01 0.01 0.01 0.01 0.00 0.00 0.01 0.01 0.01 0.01 0.00 0.00 0.00 0.00 0.00 0.00 0.00 0.00 0.00 0.00 0.01 0.01 0.01 0.01 0.02 0.03 0.03 0.03 0.03 0.03 0.05 0.05 0.05 0.03 0.02 0.02 0.01 0.00 0.00 0.00 0.00 0.00
0.00 0.00 0.01 0.00 0.00 0.00 0.00 0.00 0.01 0.02 0.04 0.04 0.01 0.01 0.00 0.00 0.00 0.00 0.00 0.00 0.00 0.01 0.02 0.01 0.01 0.01 0.01 0.02 0.02 0.02 0.02 0.01 0.02 0.03 0.04 0.03 0.03 0.02 0.01 0.00 0.00 0.00 0.00 0.00
MSLP
1013.74 1014.34 1014.72 1014.88 1014.86 1014.75 1014.63 1014.57 1014.61 1014.75 1014.99 1015.27 1015.56 1015.82 1016.04 1016.22 1016.41 1016.64 1016.94 1017.35 1017.85 1018.41 1018.99 1019.52 1019.94 1020.21 1020.30 1020.24 1020.06 1019.81 1019.57 1019.37 1019.25 1019.24 1019.31 1019.45 1019.61 1019.75 1019.86 1019.91 1019.91 1019.87 1019.81 1019.76
1013.92 1014.38 1014.61 1014.66 1014.60 1014.50 1014.45 1014.52 1014.72 1015.03 1015.41 1015.79 1016.12 1016.36 1016.52 1016.61 1016.69 1016.83 1017.07 1017.44 1017.95 1018.54 1019.16 1019.74 1020.19 1020.48 1020.58 1020.52 1020.33 1020.09 1019.85 1019.69 1019.62 1019.66 1019.78 1019.95 1020.11 1020.24 1020.29 1020.27 1020.19 1020.08 1019.96 1019.86
1013.94 1014.25 1014.35 1014.32 1014.23 1014.19 1014.26 1014.49 1014.86 1015.34 1015.85 1016.32 1016.66 1016.86 1016.93 1016.90 1016.86 1016.88 1017.03 1017.36 1017.85 1018.47 1019.13 1019.76 1020.27 1020.60 1020.73 1020.70 1020.53 1020.32 1020.12 1020.00 1019.98 1020.08 1020.24 1020.44 1020.61 1020.71 1020.72 1020.64 1020.49 1020.30 1020.12 1019.98
1013.87 1014.03 1014.03 1013.95 1013.89 1013.94 1014.15 1014.56 1015.12 1015.76 1016.38 1016.89 1017.22 1017.35 1017.29 1017.11 1016.92 1016.82 1016.88 1017.15 1017.63 1018.28 1018.99 1019.69 1020.26 1020.66 1020.85 1020.86 1020.74 1020.57 1020.41 1020.33 1020.36 1020.49 1020.69 1020.91 1021.08 1021.17 1021.14 1021.01 1020.79 1020.54 1020.31 1020.13
1013.79 1013.84 1013.77 1013.69 1013.69 1013.85 1014.22 1014.80 1015.52 1016.29 1016.98 1017.50 1017.78 1017.80 1017.60 1017.27 1016.93 1016.70 1016.67 1016.90 1017.38 1018.05 1018.83 1019.61 1020.27 1020.75 1021.01 1021.09 1021.02 1020.89 1020.76 1020.72 1020.77 1020.92 1021.13 1021.35 1021.52 1021.59 1021.53 1021.36 1021.11 1020.81 1020.54 1020.32
1013.78 1013.74 1013.65 1013.59 1013.68 1013.97 1014.50 1015.23 1016.07 1016.92 1017.63 1018.12 1018.32 1018.21 1017.87 1017.38 1016.91 1016.57 1016.47 1016.67 1017.16 1017.88 1018.73 1019.59 1020.34 1020.91 1021.26 1021.40 1021.38 1021.28 1021.18 1021.14 1021.20 1021.34 1021.54 1021.75 1021.90 1021.96 1021.89 1021.70 1021.43 1021.12 1020.81 1020.57
1013.86 1013.78 1013.69 1013.70 1013.89 1014.30 1014.95 1015.79 1016.70 1017.57 1018.27 1018.68 1018.77 1018.53 1018.05 1017.44 1016.86 1016.45 1016.31 1016.50 1017.02 1017.79 1018.72 1019.66 1020.50 1021.15 1021.57 1021.77 1021.80 1021.72 1021.63 1021.58 1021.62 1021.74 1021.91 1022.10 1022.24 1022.29 1022.22 1022.03 1021.76 1021.45 1021.13 1020.87
1014.03 1013.95 1013.90 1013.98 1014.26 1014.77 1015.51 1016.40 1017.33 1018.16 1018.79 1019.11 1019.08 1018.73 1018.14 1017.45 1016.81 1016.36 1016.22 1016.44 1016.99 1017.82 1018.80 1019.81 1020.72 1021.43 1021.91 1022.16 1022.22 1022.16 1022.06 1021.99 1022.00 1022.08 1022.23 1022.39 1022.51 1022.56 1022.50 1022.34 1022.09 1021.80 1021.49 1021.21
1014.24 1014.18 1014.20 1014.35 1014.71 1015.29 1016.06 1016.94 1017.83 1018.59 1019.12 1019.33 1019.19 1018.76 1018.12 1017.39 1016.75 1016.33 1016.22 1016.48 1017.07 1017.94 1018.96 1020.00 1020.94 1021.70 1022.21 1022.49 1022.57 1022.52 1022.42 1022.33 1022.31 1022.36 1022.48 1022.61 1022.73 1022.78 1022.75 1022.62 1022.41 1022.14 1021.85 1021.58
1014.42 1014.42 1014.50 1014.73 1015.15 1015.76 1016.51 1017.34 1018.13 1018.78 1019.19 1019.30 1019.09 1018.62 1017.98 1017.29 1016.71 1016.36 1016.32 1016.62 1017.25 1018.14 1019.16 1020.20 1021.13 1021.89 1022.41 1022.69 1022.79 1022.76 1022.66 1022.58 1022.54 1022.57 1022.66 1022.78 1022.89 1022.96 1022.95 1022.86 1022.69 1022.46 1022.20 1021.93
1014.50 1014.57 1014.74 1015.04 1015.49 1016.08 1016.78 1017.51 1018.19 1018.71 1019.00 1019.03 1018.79 1018.34 1017.76 1017.18 1016.71 1016.47 1016.52 1016.88 1017.53 1018.40 1019.38 1020.36 1021.25 1021.96 1022.46 1022.75 1022.86 1022.85 1022.77 1022.70 1022.67 1022.69 1022.77 1022.88 1022.99 1023.07 1023.08 1023.03 1022.90 1022.71 1022.47 1022.22
1014.45 1014.62 1014.86 1015.21 1015.67 1016.23 1016.85 1017.46 1018.00 1018.39 1018.58 1018.56 1018.34 1017.96 1017.50 1017.07 1016.76 1016.66 1016.81 1017.23 1017.87 1018.69 1019.59 1020.48 1021.28 1021.92 1022.38 1022.65 1022.78 1022.80 1022.76 1022.73 1022.72 1022.75 1022.83 1022.94 1023.04 1023.12 1023.14 1023.11 1023.01 1022.85 1022.64 1022.40
1014.30 1014.56 1014.88 1015.27 1015.73 1016.23 1016.74 1017.23 1017.63 1017.90 1018.02 1017.98 1017.81 1017.54 1017.25 1017.01 1016.89 1016.94 1017.19 1017.65 1018.27 1019.01 1019.80 1020.56 1021.23 1021.78 1022.18 1022.43 1022.57 1022.63 1022.65 1022.66 1022.69 1022.75 1022.84 1022.93 1023.02 1023.09 1023.11 1023.08 1022.99 1022.85 1022.67 1022.45
1014.10 1014.45 1014.84 1015.25 1015.69 1016.12 1016.53 1016.88 1017.15 1017.32 1017.39 1017.36 1017.27 1017.14 1017.04 1017.00 1017.07 1017.28 1017.63 1018.12 1018.70 1019.35 1020.00 1020.61 1021.14 1021.58 1021.90 1022.14 1022.29 1022.39 1022.46 1022.53 1022.61 1022.69 1022.78 1022.87 1022.93 1022.97 1022.98 1022.94 1022.85 1022.73 1022.56 1022.37
1013.95 1014.37 1014.81 1015.23 1015.63 1015.99 1016.28 1016.51 1016.66 1016.75 1016.78 1016.78 1016.77 1016.80 1016.88 1017.05 1017.30 1017.66 1018.09 1018.59 1019.13 1019.67 1020.18 1020.63 1021.02 1021.34 1021.60 1021.80 1021.97 1022.11 1022.23 1022.35 1022.47 1022.57 1022.66 1022.73 1022.77 1022.77 1022.75 1022.68 1022.59 1022.47 1022.33 1022.15
1013.93 1014.40 1014.85 1015.27 1015.61 1015.89 1016.07 1016.18 1016.23 1016.24 1016.25 1016.28 1016.37 1016.53 1016.78 1017.12 1017.54 1018.02 1018.53 1019.04 1019.52 1019.96 1020.33 1020.65 1020.90 1021.12 1021.30 1021.47 1021.63 1021.80 1021.97 1022.13 1022.27 1022.39 1022.48 1022.52 1022.53 1022.49 1022.43 1022.35 1022.25 1022.13 1022.00 1021.85
1014.09 1014.58 1015.02 1015.40 1015.68 1015.85 1015.93 1015.93 1015.89 1015.84 1015.82 1015.89 1016.05 1016.33 1016.72 1017.21 1017.76 1018.34 1018.90 1019.41 1019.85 1020.20 1020.46 1020.65 1020.80 1020.91 1021.03 1021.17 1021.32 1021.50 1021.69 1021.87 1022.03 1022.15 1022.23 1022.25 1022.22 1022.16 1022.07 1021.97 1021.86 1021.75 1021.64 1021.52
1014.44 1014.90 1015.30 1015.61 1015.81 1015.89 1015.87 1015.77 1015.65 1015.55 1015.52 1015.60 1015.82 1016.19 1016.69 1017.29 1017.94 1018.59 1019.19 1019.70 1020.10 1020.39 1020.57 1020.67 1020.72 1020.76 1020.82 1020.92 1021.05 1021.23 1021.42 1021.61 1021.76 1021.88 1021.93 1021.93 1021.89 1021.81 1021.70 1021.60 1021.49 1021.40 1021.31 1021.21
1014.90 1015.30 1015.63 1015.85 1015.96 1015.95 1015.84 1015.67 1015.49 1015.35 1015.31 1015.41 1015.68 1016.10 1016.68 1017.35 1018.06 1018.76 1019.39 1019.91 1020.29 1020.54 1020.66 1020.70 1020.69 1020.68 1020.69 1020.75 1020.85 1021.01 1021.18 1021.35 1021.49 1021.59 1021.63 1021.61 1021.56 1021.47 1021.37 1021.28 1021.19 1021.12 1021.05 1020.97
1015.37 1015.67 1015.90 1016.03 1016.05 1015.96 1015.79 1015.57 1015.36 1015.22 1015.19 1015.31 1015.61 1016.08 1016.69 1017.41 1018.17 1018.89 1019.54 1020.06 1020.44 1020.67 1020.77 1020.77 1020.73 1020.68 1020.65 1020.67 1020.74 1020.86 1021.00 1021.13 1021.25 1021.33 1021.35 1021.33 1021.28 1021.20 1021.12 1021.04 1020.98 1020.93 1020.88 1020.82
1015.71 1015.90 1016.03 1016.06 1016.01 1015.87 1015.67 1015.45 1015.25 1015.12 1015.12 1015.28 1015.61 1016.11 1016.76 1017.50 1018.27 1019.01 1019.67 1020.20 1020.58 1020.81 1020.90 1020.90 1020.84 1020.77 1020.71 1020.70 1020.73 1020.80 1020.90 1021.00 1021.09 1021.14 1021.15 1021.13 1021.08 1021.01 1020.95 1020.90 1020.86 1020.83 1020.80 1020.76
1015.81 1015.90 1015.93 1015.89 1015.79 1015.64 1015.46 1015.27 1015.12 1015.06 1015.12 1015.33 1015.70 1016.23 1016.89 1017.64 1018.41 1019.16 1019.81 1020.35 1020.74 1020.98 1021.08 1021.09 1021.03 1020.95 1020.88 1020.83 1020.83 1020.85 1020.91 1020.97 1021.01 1021.04 1021.04 1021.02 1020.97 1020.92 1020.87 1020.83 1020.81 1020.79 1020.76 1020.72
1015.62 1015.62 1015.58 1015.51 1015.41 1015.28 1015.16 1015.05 1015.00 1015.03 1015.17 1015.45 1015.88 1016.44 1017.11 1017.85 1018.61 1019.34 1019.99 1020.52 1020.92 1021.17 1021.30 1021.32 1021.28 1021.20 1021.11 1021.05 1021.01 1021.00 1021.01 1021.03 1021.04 1021.05 1021.03 1020.99 1020.95 1020.90 1020.85 1020.81 1020.77 1020.74 1020.71 1020.65
1015.16 1015.10 1015.02 1014.95 1014.89 1014.84 1014.81 1014.83 1014.90 1015.05 1015.31 1015.67 1016.14 1016.73 1017.40 1018.13 1018.86 1019.56 1020.19 1020.71 1021.11 1021.37 1021.52 1021.56 1021.53 1021.46 1021.37 1021.30 1021.23 1021.20 1021.17 1021.16 1021.15 1021.13 1021.09 1021.04 1020.98 1020.91 1020.84 1020.78 1020.71 1020.65 1020.57 1020.49
1014.49 1014.41 1014.34 1014.31 1014.32 1014.38 1014.49 1014.65 1014.87 1015.15 1015.51 1015.95 1016.48 1017.08 1017.74 1018.44 1019.13 1019.80 1020.39 1020.89 1021.28 1021.54 1021.70 1021.76 1021.75 1021.69 1021.61 1021.53 1021.45 1021.40 1021.35 1021.32 1021.28 1021.24 1021.18 1021.11 1021.03 1020.93 1020.82 1020.70 1020.58 1020.45 1020.32 1020.19
1013.74 1013.66 1013.64 1013.69 1013.81 1014.00 1014.25 1014.56 1014.92 1015.33 1015.79 1016.30 1016.86 1017.46 1018.10 1018.75 1019.39 1020.00 1020.55 1021.01 1021.38 1021.64 1021.81 1021.88 1021.88 1021.84 1021.76 1021.68 1021.61 1021.54 1021.49 1021.44 1021.39 1021.34 1021.26 1021.17 1021.05 1020.90 1020.74 1020.55 1020.35 1020.15 1019.94 1019.74
Thickness
5701 5691 5687 5695 5701 5705 5705 5702 5701 5710 5721 5717 5711 5710 5713 5717 5715 5713 5713 5712 5711 5709 5706 5704 5702 5700 5698 5695 5692 5689 5686 5683 5681 5677 5674 5670 5667 5665 5663 5661 5660 5659 5658 5657
5688 5687 5700 5706 5706 5705 5704 5701 5701 5708 5717 5713 5705 5704 5710 5712 5712 5713 5711 5709 5707 5704 5700 5697 5694 5692 5690 5688 5685 5681 5678 5675 5672 5669 5666 5663 5660 5657 5655 5652 5651 5650 5649 5647
5687 5695 5707 5706 5703 5701 5701 5700 5703 5704 5707 5707 5702 5695 5701 5707 5710 5710 5709 5708 5706 5701 5697 5693 5689 5685 5682 5679 5677 5674 5670 5667 5665 5662 5659 5655 5651 5648 5645 5643 5641 5640 5639 5638
5691 5702 5706 5704 5703 5704 5696 5711 5710 5706 5695 5685 5693 5676 5693 5700 5701 5704 5705 5703 5701 5698 5693 5689 5684 5679 5675 5672 5669 5665 5662 5659 5657 5654 5651 5647 5642 5637 5635 5633 5632 5631 5630 5629
5692 5703 5704 5703 5709 5711 5707 5715 5710 5704 5691 5679 5682 5675 5683 5693 5694 5700 5703 5702 5698 5694 5689 5684 5679 5674 5670 5665 5661 5657 5654 5652 5649 5646 5642 5638 5633 5629 5626 5625 5623 5622 5621 5620
5698 5710 5712 5712 5718 5718 5714 5705 5696 5685 5677 5667 5677 5672 5676 5687 5696 5701 5703 5700 5695 5690 5685 5678 5673 5668 5663 5658 5654 5650 5647 5644 5641 5637 5633 5630 5625 5621 5618 5615 5613 5612 5611 5611
5691 5703 5713 5718 5711 5711 5705 5684 5665 5664 5655 5661 5676 5672 5678 5697 5702 5703 5701 5697 5692 5687 5680 5673 5666 5661 5656 5651 5647 5643 5640 5636 5633 5630 5626 5622 5617 5613 5610 5607 5604 5603 5602 5601
5675 5680 5704 5713 5710 5701 5697 5687 5663 5655 5652 5657 5669 5668 5684 5697 5700 5700 5698 5693 5687 5681 5675 5669 5662 5656 5650 5645 5640 5636 5632 5628 5625 5622 5617 5614 5610 5605 5602 5600 5597 5595 5594 5593
5674 5681 5707 5714 5717 5708 5691 5682 5683 5664 5658 5652 5658 5672 5685 5693 5692 5691 5689 5685 5681 5676 5670 5663 5656 5651 5644 5638 5633 5629 5625 5621 5617 5613 5609 5606 5602 5599 5595 5593 5591 5588 5587 5586
5687 5682 5699 5709 5712 5704 5699 5685 5669 5659 5647 5645 5657 5664 5671 5683 5683 5683 5680 5677 5674 5668 5662 5656 5650 5644 5638 5632 5627 5623 5619 5614 5610 5606 5602 5599 5595 5592 5589 5586 5584 5582 5580 5579
5691 5679 5686 5695 5694 5691 5688 5681 5668 5656 5655 5645 5643 5658 5684 5684 5684 5679 5676 5672 5668 5662 5656 5650 5643 5637 5631 5625 5621 5616 5611 5607 5603 5599 5595 5592 5588 5585 5582 5579 5577 5575 5574 5573
5685 5673 5669 5682 5696 5700 5695 5685 5672 5662 5656 5650 5646 5657 5684 5682 5681 5676 5671 5667 5662 5656 5650 5643 5637 5631 5625 5620 5615 5610 5605 5601 5597 5593 5589 5585 5582 5578 5575 5573 5570 5569 5567 5566
5683 5669 5659 5665 5675 5686 5684 5680 5675 5665 5653 5644 5644 5659 5676 5675 5673 5670 5665 5661 5655 5650 5643 5636 5630 5625 5620 5615 5610 5605 5600 5595 5591 5587 5583 5579 5576 5572 5569 5566 5565 5563 5562 5560
5685 5665 5659 5657 5664 5674 5677 5677 5673 5665 5651 5648 5654 5663 5669 5668 5665 5661 5658 5653 5649 5644 5638 5631 5625 5620 5615 5609 5604 5600 5594 5590 5586 5583 5578 5574 5570 5567 5565 5562 5560 5558 5556 5554
5680 5664 5666 5668 5675 5676 5676 5676 5673 5669 5665 5659 5664 5664 5668 5667 5663 5658 5653 5647 5642 5638 5633 5627 5621 5615 5610 5604 5600 5595 5590 5586 5582 5578 5574 5570 5567 5563 5560 5558 5555 5553 5551 5550
5669 5663 5664 5664 5672 5672 5669 5673 5673 5671 5669 5665 5665 5663 5668 5664 5659 5653 5648 5643 5639 5634 5629 5623 5617 5612 5607 5602 5597 5591 5586 5582 5578 5574 5570 5567 5564 5560 5557 5554 5551 5549 5547 5545
5659 5658 5652 5650 5662 5665 5657 5666 5669 5668 5667 5665 5660 5662 5660 5656 5652 5648 5644 5641 5636 5631 5625 5620 5614 5610 5605 5600 5594 5588 5584 5579 5575 5571 5568 5564 5561 5557 5554 5551 5548 5545 5543 5541
5656 5649 5641 5642 5651 5643 5659 5672 5671 5666 5663 5663 5662 5660 5656 5654 5649 5644 5641 5637 5632 5627 5621 5617 5612 5607 5602 5597 5591 5586 5581 5577 5572 5569 5566 5563 5559 5555 5552 5548 5546 5543 5541 5539
5659 5650 5638 5634 5637 5645 5660 5668 5666 5661 5658 5661 5657 5653 5649 5646 5643 5637 5636 5633 5629 5623 5618 5614 5609 5605 5599 5594 5589 5584 5579 5574 5570 5567 5564 5561 5558 5554 5550 5547 5544 5542 5539 5538
5653 5650 5640 5634 5636 5636 5655 5668 5671 5664 5652 5658 5654 5648 5643 5642 5634 5633 5633 5629 5624 5619 5614 5610 5605 5601 5596 5591 5587 5581 5577 5572 5569 5566 5563 5560 5556 5552 5549 5546 5544 5541 5539 5537
5644 5640 5637 5634 5634 5642 5661 5667 5667 5648 5650 5658 5653 5648 5642 5639 5636 5633 5629 5624 5619 5615 5611 5607 5602 5598 5593 5589 5585 5580 5575 5571 5569 5565 5562 5559 5555 5552 5549 5546 5543 5541 5539 5537
5641 5636 5633 5630 5631 5639 5662 5662 5656 5654 5658 5656 5651 5646 5640 5635 5632 5629 5625 5620 5615 5610 5607 5603 5598 5594 5590 5587 5583 5578 5574 5571 5568 5564 5561 5557 5554 5552 5550 5546 5543 5541 5539 5537
5643 5643 5640 5639 5641 5652 5657 5659 5660 5657 5654 5652 5648 5643 5638 5632 5628 5624 5620 5615 5611 5607 5603 5599 5595 5591 5587 5584 5581 5577 5573 5570 5567 5563 5559 5556 5554 5551 5549 5546 5544 5541 5539 5537
5647 5647 5643 5643 5648 5653 5656 5657 5657 5657 5654 5651 5647 5642 5637 5632 5627 5621 5616 5611 5607 5604 5600 5596 5592 5588 5584 5581 5579 5576 5573 5569 5566 5562 5559 5556 5553 5551 5549 5547 5545 5542 5541 5539
5648 5646 5642 5643 5649 5652 5654 5654 5653 5652 5650 5647 5643 5640 5636 5631 5624 5619 5614 5609 5605 5601 5597 5593 5590 5586 5583 5580 5577 5575 5572 5569 5565 5561 5558 5556 5554 5551 5549 5548 5546 5545 5544 5542
5647 5646 5644 5645 5651 5649 5650 5652 5652 5649 5646 5644 5640 5635 5632 5629 5623 5618 5612 5608 5603 5599 5595 5591 5588 5584 5582 5579 5576 5574 5571 5568 5565 5561 5558 5556 5554 5552 5550 5549 5549 5549 5548 5547